This demonstration page uses our WeatherBlox Daily Observations layout. Learn more.

41.55636, -103.73856

Hourly Observations for May 27, 2018

Temp ( °F °C ) Dew Point ( °F °C ) Humidity (%) Winds ( mph kmh ) Pressure ( in mb ) Visibility ( mi km ) Precip ( " mm )
12:58 am 00:58 Mostly Clear 67 19.4 44 6.7 44 44 S 12 19 29.63 1003 10 16.0934 N/A
1:58 am 01:58 Mostly Cloudy 66 19 46 8 49 49 S 12 19 29.64 1004 10 16.0934 N/A
2:58 am 02:58 Mostly Cloudy 64 17.5 47 8.4 55 55 SSW 7 11 29.64 1004 10 16.0934 N/A
3:58 am 03:58 Mostly Cloudy 62 16.6 48 8.7 60 60 SSW 9 15 29.67 1005 10 16.0934 N/A
4:58 am 04:58 Mostly Cloudy 64 17.6 48 8.7 56 56 SW 10 17 29.68 1005 10 16.0934 N/A
5:58 am 05:58 Mostly Cloudy 62 16.4 40 4.3 45 45 SSW 15 24 29.72 1006 10 16.0934 N/A
6:58 am 06:58 Sunny 65 18.4 45 7.4 49 49 NW 16 26 29.76 1008 10 16.0934 N/A
7:58 am 07:58 Sunny 66 18.7 55 12.7 68 68 NW 17 28 29.78 1008 10 16.0934 N/A
8:58 am 08:58 Sunny 66 18.7 56 13.2 71 71 WNW 15 24 29.84 1011 10 16.0934 N/A
9:58 am 09:58 Sunny 68 19.9 56 13.2 65 65 NNW 20 31 29.78 1009 10 16.0934 N/A
10:58 am 10:58 Sunny 70 21 59 14.8 68 68 N 14 22 29.78 1009 10 16.0934 N/A
11:58 am 11:58 Sunny 75 23.9 57 13.7 53 53 N 13 20 29.77 1008 10 16.0934 N/A
12:58 pm 12:58 Mostly Sunny 75 23.9 56 13.4 52 52 ENE 13 20 29.78 1008 10 16.0934 N/A
1:58 pm 13:58 Sunny 79 26.1 55 12.6 43 43 ESE 13 20 29.76 1008 10 16.0934 N/A
2:58 pm 14:58 Sunny 79 26 52 11 39 39 ESE 12 19 29.75 1007 10 16.0934 N/A
3:58 pm 15:58 Sunny 76 24.6 53 11.7 45 45 SE 15 24 29.74 1007 10 16.0934 N/A
4:58 pm 16:58 Partly Cloudy with Light Showers 73 23 44 6.8 35 35 SE 15 24 29.69 1005 10 16.0934 N/A
5:58 pm 17:58 Mostly Cloudy 72 22 43 6.2 36 36 ESE 8 13 29.73 1007 10 16.0934 N/A
6:58 pm 18:58 Windy with Rain Showers Likely 61 16.2 49 9.7 66 66 N 22 35 29.79 1009 10 16.0934 0.02 0.508
7:58 pm 19:58 Mostly Cloudy 58 14.6 51 10.5 77 77 NNE 18 30 29.78 1008 10 16.0934 N/A
8:58 pm 20:58 Mostly Cloudy 56 13.2 51 10.7 85 85 NE 9 15 29.84 1011 10 16.0934 N/A
9:58 pm 21:58 Partly Cloudy 55 13 54 12.1 94 94 E 10 17 29.98 1015 10 16.0934 N/A
10:58 pm 22:58 Cloudy with Rain 55 12.8 53 11.6 92 92 NE 26 43 29.88 1012 10 16.0934 0.02 0.508
11:58 pm 23:58 Mostly Cloudy with Light Showers 55 12.8 53 11.4 91 91 E 14 22 29.93 1014 10 16.0934 0.01 0.254

Powered by AerisWeather